Location: Pittsburgh
(40.4410°N, 79.9960°W)
Time: 03:43:12
(UTC-04:00)

Hubble Space Telescope - Visible Passes

Search period start: 08 March 2026 00:00
Search period end: 18 March 2026 01:00
Orbit: 476 x 479 km, 28.5° (Epoch: 8 March)

Date Brightness Start Highest point End Pass type
(mag) Time Alt. Az. Time Alt. Az. Time Alt. Az.
11 Mar 2.9 21:04:23 10° SSW 21:05:34 13° S 21:05:34 13° S visible
12 Mar 2.8 20:33:43 10° SSW 20:35:29 13° S 20:36:42 11° SSE visible
13 Mar 2.9 20:03:02 10° SSW 20:04:47 13° S 20:06:33 10° SSE visible
14 Mar 3.1 21:11:52 10° SSW 21:12:57 11° SSW 21:12:57 11° SSW visible
15 Mar 3.0 20:41:07 10° SSW 20:42:23 11° S 20:43:39 10° S visible
16 Mar 3.1 20:10:22 10° SSW 20:11:38 11° S 20:12:54 10° S visible
